Location: Buckland
(65.9785°N, 161.1281°W)
Time: 14:08:47
(UTC+00:00)

Transit 4A - Pass Details

Date: 06 October 2022
Orbit: 871 x 972 km, 66.8° (Epoch: 29 November)

Event Time Altitude Azimuth Distance (km) Brightness Sun altitude
Exits shadow 16:14:34 - 304° (NW) 3,393 10.3 -6.7°
Reaches altitude 10° 16:16:56 10° 296° (WNW) 2,566 9.7 -6.4°
Maximum altitude 16:22:11 34° 234° (SW) 1,412 8.5 -5.9°
Drops below altitude 10° 16:27:21 10° 171° (S) 2,524 10.3 -5.4°
Sets 16:30:00 0° 163° (SSE) 3,456 11.1 -5.1°
